COSMOS 2251 DEB, 34431

Orbit data source: Space-Track

COSMOS 2251 DEB, 34431 is space debris in LEO originally from a launch on Wed, 16 Jun 1993 UTC launched from the Plesetsk Missile And Space Complex (PKMTR). The debris from Iridium 33, an American commercial communications satellite, has been tracked extensively since its accidental collision with the defunct Russian satellite Cosmos 2251 in 2009. This event, occurring at high speed in low Earth orbit (LEO), generated thousands of pieces of space debris, significantly increasing the risk of further collisions. The Iridium 33 debris cloud has impacted space traffic management and orbital debris mitigation strategies, making it a subject of ongoing study in space situational awareness.

Loading next visibility...
Identifier
34431, 1993-036RY
Orbit
LEO
Country
Flag of CISCIS
Related business
Manufacturer
Unknown
Mission
Spacecraft
Bus & Motor
Unknown
Mass
Unknown
Launch date (UTC)
1993-06-16 (33 years ago)
Launch vehicle
Unknown
Launch site
Plesetsk Missile And Space Complex (PKMTR)
Object type
Payload
Rocket body
Debris
Shape & HBR
Unknown shape, 0.1 m
Radar Cross Section
Medium (>0.1 m² and <1 m²)

Expand to show TLE details & history
Last TLE update: 2 days ago

TLE from 2 days ago
0 COSMOS 2251 DEB
1 34431U 93036RY  26208.15695475  .00001421  00000-0  55354-3 0  9999
2 34431  74.0753 125.1129 0066405  53.6361 307.0891 14.29430796903778
Epoch: 2026-07-27T03:46Z
TLE epoch observation values (Epoch: 2026-07-27T03:46:00.890Z)
Latitude
-0°
Longitude
123.76462°
Altitude
767.717 km
Speed
7.485 km/s
True Right ascension
08h 20m 27s
True Declination
0° 00' 00"
Sunlit
Object was in daylight at epoch
Visualization orbit readout
Latitude
Unknown
Longitude
Unknown
Altitude
Unknown
Speed
Unknown
Apparent Right ascension
Unknown
Apparent Declination
Unknown
Sunlit
N/A
Visualization observer readout
Local Sidereal Time
08:43:36
Azimuth
Unknown
Elevation
Unknown
Doppler factor
Unknown
Orbital elements
Apogee altitude
838.87 km
Perigee altitude
743.653 km
Semi-major axis
7,169.399 km
Eccentricity
0.00664
Inclination
74.0753°
RAAN
125.1129°
Arg. of periapsis
53.6361°
True anomaly
306.47905°
Mean anomaly
307.0891°
Eccentric anomaly
306.78438°
Mean motion
3.57535 °/min
Orbital period
100.69 mins
BSTAR
0.00055354
Loading maneuver chart data...
Computing Atmospheric mass density...

Documentation

Showing up to 5 results
|